Погода в Костюковичи

Погода в Костюковичи : погода сейчас, прогноз погоды и архив. Всё, что Вы хотите узнать о погоде в Костюковичи!

Поиск расширенной информации на нашем сайте:

Другие новости

Новости СМИ2

Главная страница сайта

Новости сайта

03.07.2017

Напоминаем, что на нашем специализированном сайте Метеоцентр.Азия вы можете получить высокодетализированные автоматические прогнозы погоды по пунктам России, СНГ и мира в авиационном формате (включающие направление и скорость ветра, видимость, явления погоды, количество и форму облачности, нижнюю и верхнюю границу облачности).


Погода в Костюковичи - сегодня

Время (UTC), дата Ветер
(°,м/с) 
Видим.   Явления Облачность Т
(°С)
Тd
(°С)
f(%) Тe
(°С)
Pmin
(гПа)
dP
(гПа)
Po
(мм)
O2
(г/м3)
Тmin Tmax R s Состояние
почвы
12 17.02.18 200 (Ю) 6000 м  дымка{снег}  10/10 240 м 
[St]
-0.5 -2.2 88 -1  1020.8  -0.7  750  303           
15 17.02.18 200 (Ю) 5000 м  дымка{снег}  10/10 300 м 
[St]
-0.8 -2 92 -2  1020.2  -0.6  749  303      0.8     
18 17.02.18 170 (Ю) 5000 м  дымка{снег}  10/10 600 м 
[Sc]
-1.1 -2.4 91 -1  1019.8  -0.4  749  303    -0.3  0.8  28   
21 17.02.18 170 (Ю) 4100 м  слаб. снег  10/10 450 м 
[Frnb|Ns]
-1.4 -2.2 94 -2  1018.9  -0.9  748  303           
00 18.02.18 200 (Ю) 1900 м  дымка{снег}  10/10 150 м 
[St]
-1.1 -1.9 94 -3  1018.4  -0.5  748  303           
03 18.02.18 200 (Ю) 5000 м  слаб. снег  10/10 120 м 
[Frnb|Ns]
-1.1 -1.9 94 -3  1017.6  -0.8  747  303      0.3  28   
06 18.02.18 240 (ЮЗ) 13000 м  {снег}  10/10 930 м 
[Sc]
-1.2 -4.2 80 -3  1018  0.4  748  303  -1.5    0.5  28  равномерный
сухой снег
100% 
09 18.02.18 250 (З) 20000 м    10/10 600 м 
[Sc]
-1.6 -5 78 -4  1018.1  0.1  748  304           
12 18.02.18 240 (ЮЗ) 7000 м  слаб. снег  10/10 420 м 
[Frnb|Ns]
-1.7 -5 78 -4  1018.2  0.1  748  304           
15 18.02.18 230 (ЮЗ) 4200 м  слаб. снег  10/10 330 м 
[Frnb|Ns]
-2.5 -4 89 -4  1018.5  0.2  748  305      0.5     
18 18.02.18 220 (ЮЗ) 6000 м  в посл. час снег  10/10 300 м 
[St]
-2.8 -4.5 88 -2  1018.9  0.4  748  305    -1  0.8  28   
21 18.02.18 280 (З) 12000 м  в посл. час снег  10/10 1140 м 
[Sc]
-2.4 -4.1 88 -3  1019  0.1  748  305           
00 19.02.18 280 (З) 15000 м  {снег}  10/10 300 м 
[St]
-2.6 -4.3 88 -4  1019.5  0.5  749  305           
03 19.02.18 300 (СЗ) 14000 м  слаб. снег  10/10 1260 м 
[Sc]
-3.5 -5.8 84 -6  1019.5  -0.1  749  306      0.0  28   
06 19.02.18 260 (З) 4200 м  слаб. снег  10/10 360 м 
[Frnb|Ns]
-4.4 -6.4 86 -7  1020.4  0.8  749  308  -4.5    0.1  28  равномерный
сухой снег
100% 
09 19.02.18 280 (З) 20000 м  {снег}  9/9 900 м 
[Sc]
-4.6 -9.8 67 -7  1021  0.6  750  308           
12 19.02.18 310 (СЗ) 25000 м  в посл. час ливневой снег  9/9 1020 м 
[Sc]
-3.8 -9.4 65 -7  1021  750  307           
15 19.02.18 290 (З) 14000 м  в посл. час ливневой снег  10/10 1140 м 
[Sc]
-5.1 -8 80 -6  1021.5  0.4  750  309      0.1     
18 19.02.18 270 (З) 16000 м  {ливн. осадки}  10/10 840 м 
[Sc]
-6.9 -9.1 84 -8  1022.5  0.8  751  311    -3.1  0.1  28   
21 19.02.18 290 (З) 12000 м    10/10 800 м 
[Sc]
-7.1 -9.4 84 -9  1022.6  0.1  751  311           
00 20.02.18 280 (З) 6000 м  слаб. снег  10/10 720 м 
[Sc]
-7.8 -10.1 84 -9  1023  0.4  751  312           
03 20.02.18 280 (З) 4400 м  слаб. снег  10/10 330 м 
[Frnb|Ns]
-8.4 -10.4 85 -11  1023.3  0.2  751  313      0.2  28   
06 20.02.18 250 (З) 4000 м  в посл. час снег  9/9 600 м 
[Sc]
-8.6 -10.6 85 -8  1023.9  0.6  752  314  -8.7    0.4  29  равномерный
сухой снег
100% 
09 20.02.18 300 (СЗ) 23000 м  {ливн. осадки}  8/0 средняя 
[Ac trans]
-6.4 -10.5 73 -8  1024.1  0.4  752  311           
12 20.02.18 320 (СЗ) 27000 м  {ливн. осадки}  8/8 800 м средняя 
[Sc|Ac trans]
-5.4 -10.6 67 -7  1023.8  -0.3  752  310           
Время (UTC), дата Ветер
(°,м/с) 
Видим.   Явления Облачность Т
(°С)
Тd
(°С)
f(%) Тe
(°С)
Pmin
(гПа)
dP
(гПа)
Po
(мм)
O2
(г/м3)
Тmin Tmax R s Состояние
почвы

Для получения пояснительной информации подведите курсор к названию столбца.

ПОГОДА в Костюковичи - архив

Всё, что Вы хотите узнать о погоде в Костюковичи - удобно и подробно!

Выберите нужную дату (начиная с 1 января 2015* года) и нажмите кнопку "Найти".
Будут отображены архивные сводки погоды по пункту Костюковичи, начиная с указанной даты.


Отображать данные в формате CSV (для использования в таблицах Excel)


Внимание! Наш архив погоды предназначен исключительно для личного некоммерческого использования в познавательных целях. Если Вам необходимы официальные справки о состоянии погоды (для производственных, юридических, коммерческих и т.п. целей), обращайтесь в органы Росгидромета.

*Примечание: данная дата относится к архиву по метеостанциям СССР (Россия, СНГ, Балтия).
Архив по метеостанциям Зарубежной Европы и Азии (кроме Китая) хранится 10 дней, по другим регионам земного шара (Китай, Африка, Америка, Австралия, Океания) - 1 день.

Костюковичи - район местоположения метеостанции


Название, широта, долгота, высота метеостанции:
Костюковичи 53.3°ш. 32.1°д. 167 м над ур. моря [Беларусь]

Дополнительная информация

В oтличие oт бoльшинства пoгoдных сайтoв мы публикуем пoдрoбную метеoинфoрмацию в детальнoм прoфессиoнальнoм фoрмате.

Характеристики температуры и влажнoсти вoздуха измеряются на высoте 2 м в тени вдали oт зданий и деревьев.
Скoрoсть ветра измеряется на высoте 10 м (на урoвне рoста челoвека скoрoсть ветра ниже в 1.5-2 раза). Если метеoстанция нахoдится в гoрoде или в лесу, тo скoрoсть ветра занижена на 2-4 м/с пo сравнению с oткрытым местoм. Скoрoсть ветра над акватoриями крупных рек и oзёр, а также на вершинах хoлмoв на 2-5 м/с выше, чем в oбычных услoвиях.
Атмoсфернoе давление в разных тoчках местнoсти мoжет значительнo oтличаться oт давления на метеoстанции, в зависимoсти oт услoвий рельефа (при пoдъёме на 10 м давление пoнижается примернo на 1 мм рт.ст.).